This is the latest recevied weather packets stored in our database for station/object KA1AL. If no packets are shown the sender has not sent any weather packets the latest 1 day(s).
| Time | Temp. | Humidity | Pressure | Rain* | Wind** | Luminosity | Snow |
|---|---|---|---|---|---|---|---|
| 1778036643 | 13.33° C | 99% | 1007 hPa | 1.78 mm | 1.34 m/s, 194° | 0 W/m² | - |
| 1778036339 | 13.33° C | 99% | 1007.2 hPa | 1.78 mm | 1.34 m/s, 203° | 0 W/m² | - |
| 1778036036 | 13.33° C | 99% | 1007.1 hPa | 0 mm | 0.89 m/s, 195° | 0 W/m² | - |
| 1778035733 | 13.33° C | 99% | 1006.9 hPa | 0 mm | 0.89 m/s, 202° | 0 W/m² | - |
| 1778035430 | 13.33° C | 99% | 1007.1 hPa | 0 mm | 0.89 m/s, 202° | 0 W/m² | - |
| 1778035126 | 13.33° C | 99% | 1007.2 hPa | 0 mm | 1.34 m/s, 174° | 0 W/m² | - |
| 1778034823 | 13.33° C | 99% | 1007.2 hPa | 0 mm | 0.45 m/s, 151° | 0 W/m² | - |
| 1778034520 | 13.33° C | 99% | 1007.3 hPa | 0 mm | 0.89 m/s, 189° | 0 W/m² | - |
| 1778034218 | 13.33° C | 99% | 1007.6 hPa | 0 mm | 0.89 m/s, 174° | 0 W/m² | - |
| 1778033916 | 13.33° C | 99% | 1007.3 hPa | 0 mm | 0 m/s | 0 W/m² | - |
| 1778033612 | 13.33° C | 99% | 1007.1 hPa | 0 mm | 0 m/s | 0 W/m² | - |
| 1778033309 | 13.33° C | 99% | 1006.7 hPa | 0 mm | 0 m/s | 0 W/m² | - |
| 1778033007 | 13.33° C | 99% | 1006.7 hPa | 0 mm | 0 m/s | 0 W/m² | - |
| 1778032704 | 13.33° C | 99% | 1006.5 hPa | 0 mm | 0.89 m/s, 234° | 0 W/m² | - |
| 1778032401 | 13.33° C | 99% | 1006.4 hPa | 0 mm | 0.45 m/s, 185° | 0 W/m² | - |
| 1778032098 | 13.33° C | 99% | 1007 hPa | 0 mm | 0 m/s | 0 W/m² | - |
| 1778031795 | 13.33° C | 99% | 1006.8 hPa | 0 mm | 0.45 m/s, 148° | 0 W/m² | - |
| 1778031492 | 13.89° C | 99% | 1006.9 hPa | 0 mm | 0.89 m/s, 219° | 0 W/m² | - |
| 1778031189 | 13.89° C | 99% | 1006.6 hPa | 0 mm | 0.89 m/s, 200° | 0 W/m² | - |
| 1778030886 | 13.33° C | 99% | 1006.8 hPa | 0 mm | 1.34 m/s, 134° | 0 W/m² | - |
| 1778030582 | 13.33° C | 99% | 1006.7 hPa | 0 mm | 0 m/s | 0 W/m² | - |
| 1778030280 | 13.33° C | 99% | 1006 hPa | 0 mm | 0.45 m/s, 93° | 0 W/m² | - |
| 1778029975 | 13.89° C | 99% | 1006.1 hPa | 0 mm | 0.45 m/s, 78° | 0 W/m² | - |
| 1778029674 | 13.89° C | 99% | 1006.3 hPa | 0 mm | 0 m/s | 0 W/m² | - |
| 1778029371 | 13.89° C | 99% | 1006.3 hPa | 0 mm | 0 m/s | 0 W/m² | - |
* Rain latest hour (hover to see other rain measurements)
** Current wind speed in m/s (hover to see current wind gust speed)